TERRASAR-X

Last updated on Mon Oct 14 2024 00:02:24 GMT+0000 (Coordinated Universal Time)

1 31698U 07026A 24287.47314605 .00003150 00000+0 15323-3 0 9990 2 31698 97.4470 292.9517 0002007 85.2867 274.8597 15.19131569960356
UTC large
Height (km)
Speed (km/s)
/
Latitude / Longitude
Inclination (degrees)
Orbital Period (minutes)
Azimuth
Elevation
Range (km)
Doppler Factor

Next 0 passes for location: London (51.5072 / 0.1276)

Sorry there are no passes over London.